Kalispell, MT

12:15 AM MDT on July 26, 2017 (GMT -0600)
Glacier Park International

Weather History for KGPI - November, 2010

Change the Weather History Date:

Thursday, November 4, 2010

  Actual Average Record
Temperature  
Mean Temperature 38 °F 36 °F  
Max Temperature 52 °F 45 °F 65 °F (1975)
Min Temperature 23 °F 27 °F 9 °F (2002)
Degree Days  
Heating Degree Days 27 29  
Month to date heating degree days 94 115  
Since 1 July heating degree days 1243 1323  
Cooling Degree Days 0 0  
Month to date cooling degree days 0 0  
Year to date cooling degree days 84 147  
Moisture  
Dew Point 28 °F    
Average Humidity 70    
Maximum Humidity 92    
Minimum Humidity 48    
Precipitation  
Precipitation 0.00 in 0.05 in 0.64 in (1902)
Month to date precipitation 0.16 0.18  
Year to date precipitation 16.02 14.18  
Snow  
Snow 0.00 in - - ()
Month to date snowfall 0.0  
Year to date snowfall 17.9  
Since 1 July snowfall 0.0  
Snow Depth 0.00 in    
Sea Level Pressure  
Sea Level Pressure 30.36 in    
Wind  
Wind Speed 1 mph (WNW)    
Max Wind Speed 7 mph    
Max Gust Speed 8 mph    
Visibility 10 miles    
Events      
T = Trace of Precipitation, MM = Missing Value Source: NWS Daily Summary

Daily Weather History Graph

Daily Weather History Graph

Search for Another Location

Airport or City:

Trip Planner

Search our weather history database for the weather conditions in past years. The results will help you decide how hot, cold, wet, or windy it might be!

Date:

Astronomy

Nov. 04, 2010 Rise Set
Actual Time 8:27 AM MDT 6:13 PM MDT
Civil Twilight 7:54 AM MDT 6:46 PM MDT
Nautical Twilight 7:17 AM MDT 7:23 PM MDT
Astronomical Twilight 6:40 AM MDT 7:59 PM MDT
Moon 6:41 AM MDT (11/4) 5:00 PM MDT (11/4)
Length of Visible Light 10h 51m
Length of Day
9h 45m
Waning Crescent, 3% of the Moon is Illuminated
Nov 4
Waning Crescent
Nov 5
New
Nov 13
First Quarter
Nov 21
Full
Nov 28
Last Quarter

Hourly Weather History & Observations

Time (MDT) Temp. Windchill Dew Point Humidity Pressure Visibility Wind Dir Wind Speed Gust Speed Precip Events Conditions
12:55 AM 27.0 °F - 24.1 °F 89% 30.48 in 10.0 mi Calm Calm - N/A   Clear
1:55 AM 27.0 °F 23.0 °F 24.1 °F 89% 30.46 in 10.0 mi NW 3.5 mph - N/A   Clear
2:55 AM 26.1 °F - 23.0 °F 88% 30.45 in 10.0 mi Calm Calm - N/A   Clear
3:55 AM 26.1 °F - 23.0 °F 88% 30.44 in 10.0 mi Calm Calm - N/A   Clear
4:55 AM 26.1 °F 20.5 °F 24.1 °F 92% 30.42 in 10.0 mi WNW 4.6 mph - N/A   Clear
5:55 AM 26.1 °F - 23.0 °F 88% 30.42 in 10.0 mi Calm Calm - N/A   Clear
6:55 AM 24.1 °F - 21.0 °F 88% 30.44 in 10.0 mi Calm Calm - N/A   Clear
7:55 AM 25.0 °F - 21.9 °F 88% 30.44 in 10.0 mi Calm Calm - N/A   Clear
8:55 AM 25.0 °F - 21.9 °F 88% 30.44 in 10.0 mi Calm Calm - N/A   Clear
9:55 AM 33.1 °F - 28.9 °F 85% 30.43 in 10.0 mi Calm Calm - N/A   Clear
10:55 AM 39.0 °F - 32.0 °F 76% 30.42 in 10.0 mi Calm Calm - N/A   Clear
11:55 AM 42.1 °F - 32.0 °F 67% 30.40 in 10.0 mi Calm Calm - N/A   Clear
12:55 PM 44.1 °F - 32.0 °F 63% 30.38 in 10.0 mi Calm Calm - N/A   Clear
1:55 PM 46.9 °F - 30.9 °F 54% 30.34 in 10.0 mi SSW 3.5 mph - N/A   Clear
2:55 PM 48.9 °F - 33.1 °F 54% 30.31 in 10.0 mi Calm Calm - N/A   Clear
3:55 PM 51.1 °F - 32.0 °F 48% 30.28 in 10.0 mi SSE 3.5 mph - N/A   Clear
4:55 PM 51.1 °F - 32.0 °F 48% 30.27 in 10.0 mi Calm Calm - N/A   Clear
5:55 PM 48.0 °F - 33.1 °F 56% 30.26 in 10.0 mi Calm Calm - N/A   Clear
6:55 PM 39.0 °F - 33.1 °F 79% 30.28 in 10.0 mi Calm Calm - N/A   Clear
7:55 PM 35.1 °F - 30.9 °F 85% 30.28 in 10.0 mi Calm Calm - N/A   Clear
8:55 PM 32.0 °F - 28.9 °F 88% 30.28 in 10.0 mi Calm Calm - N/A   Clear
9:55 PM 30.0 °F 25.2 °F 28.0 °F 92% 30.25 in 10.0 mi WNW 4.6 mph - N/A   Clear
10:55 PM 28.0 °F 24.2 °F 26.1 °F 92% 30.25 in 10.0 mi NNE 3.5 mph - N/A   Clear
11:55 PM 28.9 °F 25.2 °F 27.0 °F 92% 30.22 in 9.0 mi WNW 3.5 mph - N/A   Clear